Погода в Староминской

Россия / Краснодарский край     46°31′58″N   39°03′13″E
темп.,
°C
ветер,
м/с
пор.,
м/с
влажн.,
%
обл.,
%
осадки,
мм/ч
давл.,
гПа
погр.,
м
17 июня, чт
чт1700:00+21св7198230 0.9 1006473
03:00+20всв61582100 1.7 1007455
06:00+19вюв61291100 0.6 1008455
09:00+21вюв698780 2.3 1010534
12:00+23ююв6870100 0.0 10111108
15:00+21ю677744 0.1 1013795
18:00+22юз477316 0.6 1013978
21:00+18зюз378578 0.6 1015155
18 июня, пт
пт1800:00+16ююз2289100 0.0 101619
03:00+15ююз11920 0.0 101710
06:00+16всв1288100 0.0 101764
09:00+21св2266100 0.0 1017528
12:00+25ссв33551 0.0 10171174
15:00+26ссв445589 0.0 10161626
18:00+24св55733 0.1 1016857
21:00+19св37900 0.1 1017135
19 июня, сб
сб1900:00+17ссв35890 0.0 101681
03:00+16св34890 0.0 101671
06:00+17всв37870 0.0 1016198
09:00+24всв58700 0.0 1016573
12:00+27всв910570 0.0 10151054
15:00+29в913510 0.0 10141447
18:00+27всв8145518 0.0 1013798
21:00+25всв9195152 0.0 1013620
20 июня, вс
вс2000:00+23всв818454 0.0 1013607
03:00+21в10214416 0.0 1012636
06:00+19в112250100 0.3 1012530
09:00+20всв9186880 1.6 1013497
12:00+27в811460 0.6 10131342
15:00+30вюв7114593 0.6 10121524
18:00+30всв26550 0.0 1011522
21:00+25всв615700 0.0 1011362
21 июня, пн
пн2100:00+24в615480 0.0 1011433
03:00+22в615420 0.0 1011413
06:00+20в515560 0.0 1011392
09:00+25в713494 0.0 1011580
12:00+29в812410 0.0 10111195
15:00+31вюв712380 0.0 10101739
18:00+31в365025 0.0 1010278
21:00+27вюв6134317 0.0 1010367